COSMOS 1275 DEB

Satellite information

Favourite Embed

Satellite Type and Status

DEBRISIN ORBIT

Key statistics

Satellite COSMOS 1275 DEB at a glance.

Uptime

16207

Days in orbit

Revolutions

≈ 14.1

Per day

Orbit

LEO

Low Earth Orbit

Inclination

82.9

Latest

Satellite identification and parameters

Extended collection of information and parameters for COSMOS 1275 DEB.

Object identification

Identified? True

Debris? True

Object name: COSMOS 1275 DEB

International designator: 1981-053HF

Object number (NORAD): 13811

Object ID (CCSDS): 13811

Country: COMMONWEALTH OF INDEPENDENT STATES (CIS)

Current information (Y/N): Y

RCS size: SMALL

Orbital parameters

Period: 101.774 minutes

Inclination: 82.9345 deg

SMA: 7220.774 km

Apoapsis: 851.946 km

Periapsis: 833.331 km

RAAN: 59.936 deg

Eccentricy: 0.00128899

Argument of periapsis: 125.4335 deg

Mean anomaly: 357.082 deg

Mean motion: 14.14904606 rev/day

Mean motion (dot): 0.00004443 rev/day2

B* drag term: 0.0022901233 1/REarth

Two-line elements (TLE)

Creation date: Oct. 18, 2025, 2:17 a.m.

Reference frame: TEME

Reference center: EARTH

Epoch: Oct. 17, 2025, 7:48 p.m. UTC

TLE line 0: 0 COSMOS 1275 DEB

TLE line 1: 1 13811U 81053HF 25290.82533731 .00004443 00000-0 22901-2 0 9992

TLE line 2: 2 13811 82.9345 59.9360 0012890 125.4335 357.0820 14.14904606180214

Live tracking on map

Real-time ground track for satellite COSMOS 1275 DEB.

In-orbit conjunctions

A list of the most updated potential collisions computed for object COSMOS 1275 DEB.

Target Orbit TCA Probability of collision Miss distance Type
IRS P2 R/B SSO 2025-09-14 02:01:37 0.00017447 295.0 (m) ROCKET BODY
CZ-6A DEB LEO 2025-06-02 14:10:09 0.0001948777 58.0 (m) DEBRIS
THOR BURNER 2 R/B SSO 2025-02-18 15:49:57 0.0001420357 617.0 (m) ROCKET BODY

Associated space launch

Navigation satellite providing location information for the Tsiklon-B navigation system

COSMOS 1275 DEB was lifted into orbit during the mission ‘Kosmos-3M | Parus 27’, on board a Kosmos-3M space rocket.

The launch took place on June 4, 1981, 3:41 p.m. from 132/2.

For more information about the launch, click the button.

Launch to space Kosmos-3M | Parus 27
Kosmos-3M | Parus 27

Agency: N/A

Status: Launch Successful

Launch date: June 4, 1981, 3:41 p.m. UTC

Rocket: Kosmos-3M

Launch pad: 132/2

Location: Plesetsk Cosmodrome, Russian Federation

...

Latest news about this satellite

There are no fresh news available about this satellite. Check back as we update our databases every day.


Newsletter sign-up

Weekly statistics, charts and insights to help you stay on top of the space industry.